This demonstration page uses our WeatherBlox Daily Observations layout. Learn more.

Left ArrowRight Arrow

41.86663, -103.66717

Hourly Observations for June 23, 2021

Temp ( °F °C ) Dew Point ( °F °C ) Humidity (%) Winds ( mph kmh ) Pressure ( in mb ) Visibility ( mi km ) Precip ( " mm )
12:53 am 00:53 Clear 67 19.4 51 10.6 57 57 E 8 13 29.65 1004 10 16 N/A
1:53 am 01:53 Clear 65 18.3 53 11.7 66 66 E 8 13 29.65 1004 10 16 N/A
2:53 am 02:53 Clear 64 17.8 54 12.2 70 70 E 6 9 29.66 1004 10 16 N/A
3:53 am 03:53 Clear 63 17.2 55 12.8 76 76 E 7 11 29.66 1004 10 16 N/A
4:53 am 04:53 Clear 61 16.1 54 12.2 78 78 SE 6 9 29.65 1004 10 16 N/A
5:53 am 05:53 Sunny 60 15.6 54 12.2 80 80 SE 3 6 29.67 1005 8 13 N/A
6:53 am 06:53 Sunny 65 18.3 55 12.8 70 70 E 6 9 29.67 1005 9 14 N/A
7:53 am 07:53 Sunny 69 20.6 56 13.3 63 63 SE 3 6 29.68 1005 10 16 N/A
8:53 am 08:53 Sunny 74 23.3 56 13.3 54 54 N N/A 29.69 1005 10 16 N/A
9:53 am 09:53 Sunny 81 27.2 53 11.7 38 38 W 8 13 29.69 1005 10 16 N/A
10:53 am 10:53 Sunny 87 30.6 51 10.6 29 29 WNW 7 11 29.67 1005 10 16 N/A
11:53 am 11:53 Sunny 91 32.8 52 11.1 26 26 NW 8 13 29.66 1005 10 16 N/A
12:53 pm 12:53 Sunny 94 34.4 51 10.6 23 23 VRB 5 7 29.66 1004 10 16 N/A
1:53 pm 13:53 Sunny 97 36.1 47 8.3 18 18 W 5 7 29.65 1004 10 16 N/A
2:53 pm 14:53 Sunny 99 37.2 44 6.7 15 15 N N/A 29.63 1004 10 16 N/A
3:53 pm 15:53 Sunny 98 36.7 42 5.6 15 15 WSW 7 11 29.62 1003 10 16 N/A
4:53 pm 16:53 Sunny 96 35.6 43 6.1 16 16 W 7 11 29.63 1004 10 16 N/A
5:53 pm 17:53 Mostly Sunny 92 33.3 43 6.1 18 18 WSW 16 26 29.67 1005 10 16 N/A
6:53 pm 18:53 Sunny 90 32.2 42 5.6 19 19 WSW 7 11 29.66 1005 10 16 N/A
7:53 pm 19:53 Sunny 82 27.8 51 10.6 34 34 ENE 3 6 29.67 1005 9 14 N/A
8:53 pm 20:53 Clear 82 27.8 49 9.4 32 32 SSE 7 11 29.69 1005 10 16 N/A
9:53 pm 21:53 Clear 77 25 51 10.6 40 40 WNW 6 9 29.71 1006 8 13 N/A
10:53 pm 22:53 Clear 73 22.8 52 11.1 48 48 N 5 7 29.70 1006 10 16 N/A
11:53 pm 23:53 Clear 73 22.8 50 10 44 44 NW 7 11 29.71 1006 10 16 N/A

Powered by AerisWeather